Domov               UVHVVR             MKGP            O straneh              
ZDRAVSTVENO VARSTVO RASTLIN
  MREŽA AGROMET. POSTAJ
 ► PROGNOSTIČNA OBVESTILA
AGROMETEOROLOŠKI PODATKI -
ARSO
OBVLADOVANJE TVEGANJ ZARADI
NEUGODNIH VREMENSKIH RAZMER
  ► NARAVNE NESREČE
  ► SUŠA/MOČA
  ► NAMAKANJE
  ► ŽLED (gozdarstvo)
KARTOGRAFSKI PRIKAZI
SPLETNE POVEZAVE
PROJEKTI IN PUBLIKACIJE

AGROMETEOROLOŠKA MREŽA: VREMENSKE POSTAJE IN FENOLOŠKA OPAZOVANJA

Pregled podatkov za lokacijo Višnjevik, meteorološka postaja 857246

Pregled senzorjev na lokaciji

ID Ime Zadnja
vrednost
Datum
zadnje
spremembe
Tip
senzorja
3902 Temperatura 2 m (°C) 8,3 °C 15.12.2017 20:45 50YA
3903 Relativna vlaga 2 m (% RH) 89,95 % RH 15.12.2017 20:45 50YA
3904 Omočenost lista (U) 0 U 15.12.2017 20:45 A730WET
3906 Padavine (mm) 0 mm 15.12.2017 20:45 Rain-O-Matic

Pregled podatkov zadnjih 24 ur

Zap.
št.
Datum in čas Višnjevik
Omočenost
lista
Padavine Relativna
vlaga
2
m
Temperatura
2
m
0 15.12.2017 20:30 0 0 90,39 8,28
1 15.12.2017 20:00 0 0 89,43 8,52
2 15.12.2017 19:30 0,5 0 91,6 8,42
3 15.12.2017 19:00 0 0 92,87 8,33
4 15.12.2017 18:30 0 0 93,53 8,27
5 15.12.2017 18:00 0 0 94,99 8,19
6 15.12.2017 17:30 0 0 95,93 8,17
7 15.12.2017 17:00 0 0 96,72 8,3
8 15.12.2017 16:30 1 0 97,08 8,55
9 15.12.2017 16:00 1 0 95,77 8,9
10 15.12.2017 15:30 1 0 94,01 9,29
11 15.12.2017 15:00 1 0 94,33 9,21
12 15.12.2017 14:30 1 0 91,89 9,47
13 15.12.2017 14:00 0,5 0 89,04 10,01
14 15.12.2017 13:30 0 0 87,22 10,4
15 15.12.2017 13:00 0 0 86,19 10,46
16 15.12.2017 12:30 0 0 89,57 10,17
17 15.12.2017 12:00 0 0 89,7 9,81
18 15.12.2017 11:30 0 0 88,61 9,8
19 15.12.2017 11:00 0,5 0 86,59 9,8
20 15.12.2017 10:30 0,5 0 89,15 9,37
21 15.12.2017 10:00 0 0 93,55 8,63
22 15.12.2017 09:30 0 0 91,35 8,78
23 15.12.2017 09:00 1 0,2 95,67 8,15
24 15.12.2017 08:30 1 0,4 94,9 8,03
25 15.12.2017 08:00 1 0 90,73 8,62
26 15.12.2017 07:30 0 0 94,28 8,12
27 15.12.2017 07:00 0 0 93,51 8,17
28 15.12.2017 06:30 1 0 90,97 8,69
29 15.12.2017 06:00 1 0 92,1 8,5
30 15.12.2017 05:30 0 0 93,46 8,18
31 15.12.2017 05:00 0 0 91,87 8,44
32 15.12.2017 04:30 0 0 93,5 8,12
33 15.12.2017 04:00 0 0 95,22 7,72
34 15.12.2017 03:30 0 0 94,62 7,6
35 15.12.2017 03:00 0 0 96,27 7,35
36 15.12.2017 02:30 1 0 94,98 7,28
37 15.12.2017 02:00 0 0 93,26 7,36
38 15.12.2017 01:30 0 0 91,52 7,43
39 15.12.2017 01:00 0 0 90,55 7,66
40 15.12.2017 00:30 0 0 90,94 7,44
41 15.12.2017 00:00 0 0 92,33 7
42 14.12.2017 23:30 0 0 92,49 6,41
43 14.12.2017 23:00 0 0 91,51 6,46
44 14.12.2017 22:30 0 0 91,16 6,47
45 14.12.2017 22:00 0 0 91,35 6,3
46 14.12.2017 21:30 0 0 92,3 6,15
47 14.12.2017 21:00 0 0 91,55 6,16
© 2011 Ministrstvo za kmetijstvo, gozdarstvo in prehrano. Vse pravice pridržane.